Regional Weather Roundup
Issued by NWS Newport/Morehead, NC

Current Version | Previous Version | Graphics & Text | Print | Product List | Glossary Off
Versions: 1 2 3 4 5 6 7 8 9 10 11 12 13 14 15 16 17 18 19 20 21 22 23 24 25 26 27 28 29 30 31 32 33 34 35 36 37 38 39 40 41 42 43 44 45 46 47 48 49 50

000
ASUS42 KMHX 280312
RWRMHX
WEATHER ROUNDUP FOR EASTERN NORTH CAROLINA
NATIONAL WEATHER SERVICE NEWPORT/MOREHEAD CITY NC
1100 PM EDT MON APR 27 2015

NOTE: "FAIR" INDICATES FEW OR NO CLOUDS BELOW 12,000 FEET
WITH NO SIGNIFICANT WEATHER AND/OR OBSTRUCTIONS TO VISIBILITY

NCZ015>017-031-032-045>047-102-103-280400-
NORTH COAST

CITY           SKY/WX    TMP DP  RH WIND       PRES   REMARKS
EDENTON        CLOUDY    56  42  60 CALM      29.87S
ELIZABETH CITY MOCLDY    50  41  71 W6        29.86S
KITTY HAWK     CLOUDY    52  42  68 CALM      29.84S
MANTEO         CLOUDY    53  40  61 CALM      29.86R

$$

NCZ045>047-081-094-103-104-280400-
CENTRAL COAST

CITY           SKY/WX    TMP DP  RH WIND       PRES   REMARKS
FRISCO         PTCLDY    49  37  63 NE3       29.85R
SWANQUARTER      N/A     52 N/A N/A NW3       29.85R

$$

NCZ095-097-098-100-101-280400-
SOUTHERN COAST

CITY           SKY/WX    TMP DP  RH WIND       PRES   REMARKS
BEAUFORT       MOCLDY    58  45  62 NW9       29.86R
CEDAR ISLAND     N/A     59 N/A N/A NE7       29.88S
JACKSONVILLE   CLOUDY    59  39  47 NW9       29.88R
PINEY ISLAND   MOCLDY   N/A N/A N/A NE7       29.86R
WILMINGTON     PTCLDY    57  47  69 N7        29.89R


$$

NCZ011>013-027>030-043-044-078>080-089-090>093-098-280400-
COASTAL PLAIN

CITY           SKY/WX    TMP DP  RH WIND       PRES   REMARKS
AHOSKIE          N/A     47  40  77 CALM      29.90R
CLINTON        MOCLDY    56  42  59 CALM      29.92R
ELIZABETHTOWN  PTCLDY    58  38  46 NW3       29.91R
GOLDSBORO      MOCLDY    59  35  40 NW7       29.89R
GREENVILLE     PTCLDY    54  39  58 CALM      29.93R
HAVELOCK       MOCLDY    61  38  42 N12       29.88R
KENANSVILLE    MOCLDY    58  35  40 NW6       29.92R
KINSTON        MOCLDY    58  39  47 N5        29.91R
NEW BERN       MOCLDY    59  39  47 N8        29.89R
RICHLANDS      MOCLDY    54  43  66 CALM      29.90R
ROCKY MOUNT    CLEAR     50  41  71 CALM      29.92R
WASHINGTON     PTCLDY    53  39  58 N5        29.89R
WHITEVILLE     CLEAR     58  42  56 N3        29.90R

$$

AMZ130-135-150-152-154-156-158-170-250-252-270-ANZ085-086-088-633-658-670-280400-
MARINE OBSERVATIONS

STATION/POSITION TIME  TEMP    WIND        PRES    WAVE   SWELL
                       AIR SEA DIR/SP/G            HT/PER HT/PER
                 (UTC) (F)     (DEG/KT/KT) (MB)    (FT/S) (FT/S)
CHESAPEAKE LIGHT 0300   56     330/ 19/ 21 1011.1
64 E VA BEACH    0250   55 56  300/ 12/ 14 1009.4    2/ 8   2/ 8
DUCK             0200   54 55  320/  4/  4 1009.5
2 E DUCK         0211      55                N/A     2/ 7
OREGON INLET     0200   53 58  340/  2/  3 1010.5
13E OREGON INLT  NOT AVBL
HATTERAS CG      0200   57 64   40/  6/  9 1009.8
DIAMOND BUOY     0250   61 74   20/ 10/ 16 1010.3    4/ 8   3/ 8
CAPE LOOKOUT     0300   60      10/  7/  8 1010.9
BEAUFORT LAB     0200   60 62  340/  4/  5 1009.5
27 SE WRIGHTSVLE 0200   64 72  330/  6/  8   N/A
5 SE WRIGHTSVLE  0208   65 65  350/  8/ 10 1011.0
225 S CAPE HAT   0250   66 70  340/ 12/ 14 1010.8    6/ 7   5/ 7
41 SE CHARLESTON 0250   66 71  210/  4/  6 1012.1    3/ 6   2/ 6

$$


USA.gov is the U.S. government's official web portal to all federal, state and local government web resources and services.